M I D A S
Marine Information and Data Acquisition System
Tripno 1493 of the Zeeleeuw from 2008-05-27 06:58:41 to 2008-05-27 12:51:19
Back to CruiseResearch ActivitiesStationsMapUnderway DataData graphs

EquipmentUnitsComment
TimeDGPSUTC
LatitudeDGPSDM.mWGS84
LongitudeDGPSDM.mWGS84
TemperatureSBE03/SBE38deg celciusITS90
ConductivitySBE21S/mITS90
SalinitySBE21 Practical Salinity Units
ChlorophylAChelsea fluorimeterg/lCalibrated in Aceton
Missing or incorrect values are displayed as -999
Sea surface data collected by the RV Zeeleeuw from 2008-05-27 06:55:51 to 2008-05-27 12:55:50
Time Latitude Longitude Temperature Conductivity Salinity ChlorophylA
2008-05-27 06:56:56 51°13.622 2°56.049 19.6743 0.009792 0.054827 -1.766697
2008-05-27 06:57:56 51°13.622 2°56.049 19.684 0.009792 0.054828 -1.766697
2008-05-27 06:58:56 51°13.624 2°56.034 19.6302 0.009792 0.054829 -1.766697
2008-05-27 06:59:56 51°13.651 2°55.942 19.6599 0.009792 0.05483 -1.766697
2008-05-27 07:00:56 51°13.68 2°55.839 19.6789 0.009792 0.054831 -1.766697
2008-05-27 07:01:55 51°13.694 2°55.78 19.6702 0.009792 0.054832 -1.766697
2008-05-27 07:02:56 51°13.7 2°55.769 19.6767 0.009792 0.054833 -1.766697
2008-05-27 07:03:56 51°13.706 2°55.767 19.6702 0.009792 0.054834 -1.766697
2008-05-27 07:04:56 51°13.701 2°55.749 19.6824 0.009792 0.054836 -1.766697
2008-05-27 07:05:55 51°13.694 2°55.739 19.6845 0.009792 0.054837 -1.766697
2008-05-27 07:06:55 51°13.692 2°55.734 19.6845 0.009792 0.054838 -1.766697
2008-05-27 07:07:53 51°13.692 2°55.728 19.6868 0.009792 0.054839 -1.766697
2008-05-27 07:08:52 51°13.693 2°55.721 19.721 0.009792 0.054839 -1.766697
2008-05-27 07:09:52 51°13.747 2°55.695 19.7016 0.009792 0.05484 -1.766697
2008-05-27 07:10:52 51°13.836 2°55.628 19.6655 0.009792 0.054841 -1.731873
2008-05-27 07:11:54 51°13.928 2°55.56 19.6868 0.009792 0.054842 -1.766697
2008-05-27 07:12:53 51°14.017 2°55.497 19.6926 0.009792 0.054843 -1.766697
2008-05-27 07:13:53 51°14.112 2°55.428 19.6956 0.009792 0.054844 -1.766697
2008-05-27 07:14:56 51°14.211 2°55.339 19.6802 0.009792 0.054844 -1.766697
2008-05-27 07:15:55 51°14.296 2°55.198 19.6107 0.009792 0.054846 -1.766697
2008-05-27 07:16:56 51°14.414 2°54.995 19.6086 0.009792 0.054848 -1.766697
2008-05-27 07:17:55 51°14.575 2°54.816 19.6017 0.009792 0.054859 -1.766697
2008-05-27 07:18:54 51°14.742 2°54.649 19.6017 0.009792 0.054875 -1.766697
2008-05-27 07:19:53 51°14.91 2°54.481 19.5816 0.009792 0.054887 -1.766697
2008-05-27 07:20:52 51°15.081 2°54.319 19.6106 0.009792 0.054896 -1.731873
2008-05-27 07:21:52 51°15.255 2°54.159 19.5978 0.009792 0.054903 -1.731873
2008-05-27 07:22:52 51°15.432 2°54.003 19.6093 0.009792 0.054909 -1.766697
2008-05-27 07:23:52 51°15.613 2°53.855 19.6081 0.009792 0.054915 -1.766697
2008-05-27 07:24:52 51°15.794 2°53.701 19.6129 0.009792 0.054918 -1.766697
2008-05-27 07:25:52 51°15.973 2°53.554 19.6216 0.009792 0.054923 -1.731873
2008-05-27 07:26:53 51°16.155 2°53.401 19.6336 0.009792 0.054927 -1.766697
2008-05-27 07:27:52 51°16.331 2°53.25 19.6349 0.009792 0.054929 -1.766697
2008-05-27 07:28:52 51°16.51 2°53.099 19.6353 0.009792 0.054932 -1.766697
2008-05-27 07:29:53 51°16.691 2°52.948 19.6502 0.009792 0.054935 -1.766697
2008-05-27 07:30:52 51°16.867 2°52.799 19.6509 0.009792 0.054938 -1.766697
2008-05-27 07:31:53 51°17.05 2°52.648 19.6557 0.009792 0.05494 -1.766697
2008-05-27 07:32:52 51°17.234 2°52.525 19.6613 0.009792 0.054945 -1.766697
2008-05-27 07:33:52 51°17.437 2°52.481 19.6747 0.009792 0.05495 -1.731873
2008-05-27 07:34:52 51°17.645 2°52.462 19.6809 0.009792 0.054951 -1.801521
2008-05-27 07:35:53 51°17.852 2°52.443 19.688 0.009792 0.054952 -1.731873
2008-05-27 07:36:53 51°18.056 2°52.468 19.6891 0.009792 0.054958 -1.731873
2008-05-27 07:37:52 51°18.249 2°52.563 19.6987 0.009792 0.054961 -1.766697
2008-05-27 07:38:52 51°18.441 2°52.666 19.7034 0.009792 0.054963 -1.731873
2008-05-27 07:39:52 51°18.637 2°52.77 19.7103 0.009792 0.054963 -1.731873
2008-05-27 07:40:52 51°18.829 2°52.9 19.7106 0.009792 0.054964 -1.731873
2008-05-27 07:41:52 51°19.021 2°53.024 19.7275 0.009792 0.054966 -1.731873
2008-05-27 07:42:52 51°19.209 2°53.143 19.7325 0.009792 0.054966 -1.731873
2008-05-27 07:43:52 51°19.393 2°53.275 19.7356 0.009792 0.054969 -1.731873
2008-05-27 07:44:52 51°19.577 2°53.41 19.7444 0.009792 0.054972 -1.731873
2008-05-27 07:45:52 51°19.764 2°53.54 19.7468 0.009792 0.054973 -1.731873
2008-05-27 07:46:52 51°19.957 2°53.668 19.7539 0.009792 0.054974 -1.766697
2008-05-27 07:47:53 51°20.15 2°53.797 19.7621 0.009792 0.054976 -1.766697
2008-05-27 07:48:52 51°20.332 2°53.929 19.7649 0.009792 0.05498 -1.731873
2008-05-27 07:49:52 51°20.52 2°54.064 19.7718 0.009792 0.054982 -1.731873
2008-05-27 07:50:52 51°20.713 2°54.193 19.7766 0.009792 0.054982 -1.731873
2008-05-27 07:51:52 51°20.904 2°54.331 19.7896 0.009792 0.054983 -1.731873
2008-05-27 07:52:52 51°21.095 2°54.465 19.7934 0.009792 0.054985 -1.731873
2008-05-27 07:53:52 51°21.289 2°54.6 19.7965 0.009792 0.054988 -1.731873
2008-05-27 07:54:52 51°21.48 2°54.735 19.8027 0.009792 0.05499 -1.766697
2008-05-27 07:55:52 51°21.676 2°54.872 19.9471 0.009792 0.054992 -1.731873
2008-05-27 07:56:53 51°21.873 2°55.008 19.8721 0.009792 0.054996 -1.731873
2008-05-27 07:57:52 51°22.065 2°55.146 19.8763 0.009792 0.054998 -1.731873
2008-05-27 07:58:52 51°22.258 2°55.286 19.9011 0.009792 0.054997 -1.731873
2008-05-27 07:59:52 51°22.448 2°55.419 19.9018 0.009792 0.055001 -1.731873
2008-05-27 08:00:52 51°22.641 2°55.554 19.9116 0.009792 0.054999 -1.731873
2008-05-27 08:01:52 51°22.835 2°55.685 19.9194 0.009792 0.055 -1.731873
2008-05-27 08:02:52 51°23.025 2°55.821 19.9302 0.009792 0.055001 -1.731873
2008-05-27 08:03:53 51°23.22 2°55.96 19.9501 0.009792 0.055001 -1.731873
2008-05-27 08:04:52 51°23.411 2°56.097 19.9639 0.009792 0.055 -1.766697
2008-05-27 08:05:52 51°23.604 2°56.225 19.9807 0.009792 0.055001 -1.731873
2008-05-27 08:06:52 51°23.794 2°56.357 19.9941 0.009792 0.055003 -1.731873
2008-05-27 08:07:52 51°23.987 2°56.49 18.3059 0.009792 0.055014 -1.731873
2008-05-27 08:08:52 51°24.182 2°56.621 18.3366 0.009792 0.055013 -1.731873
2008-05-27 08:09:52 51°24.379 2°56.752 19.7344 0.009792 0.055009 -1.731873
2008-05-27 08:10:52 51°24.573 2°56.891 19.103 0.009792 0.055011 -1.731873
2008-05-27 08:11:52 51°24.769 2°57.032 19.1822 0.009792 0.055013 -1.731873
2008-05-27 08:12:53 51°24.964 2°57.175 19.2245 0.009792 0.055017 -1.731873
2008-05-27 08:13:52 51°25.153 2°57.315 19.3399 0.009792 0.055018 -1.731873
2008-05-27 08:14:52 51°25.345 2°57.46 19.4107 0.009792 0.05502 -1.731873
2008-05-27 08:15:52 51°25.54 2°57.603 19.3996 0.009792 0.055022 -1.731873
2008-05-27 08:16:52 51°25.736 2°57.741 18.8663 0.009792 0.055024 -1.766697
2008-05-27 08:17:52 51°25.931 2°57.877 18.9531 0.009792 0.055026 -1.731873
2008-05-27 08:18:53 51°26.127 2°58.015 19.1095 0.009792 0.05503 -1.731873
2008-05-27 08:19:52 51°26.318 2°58.151 19.1104 0.009792 0.055033 -1.697049
2008-05-27 08:20:52 51°26.513 2°58.285 19.1449 0.009792 0.055037 -1.731873
2008-05-27 08:21:52 51°26.707 2°58.417 19.2113 0.009792 0.055042 -1.766697
2008-05-27 08:22:52 51°26.904 2°58.552 19.2016 0.009792 0.055043 -1.731873
2008-05-27 08:23:52 51°27.104 2°58.685 19.1976 0.009792 0.055044 -1.731873
2008-05-27 08:24:52 51°27.301 2°58.81 19.2621 0.009792 0.055047 -1.731873
2008-05-27 08:25:52 51°27.501 2°58.939 19.3528 0.009792 0.05505 -1.731873
2008-05-27 08:26:52 51°27.699 2°59.063 19.3677 0.009792 0.055053 -1.731873
2008-05-27 08:27:52 51°27.896 2°59.205 19.4084 0.009792 0.055054 -1.731873
2008-05-27 08:28:53 51°28.095 2°59.353 19.4046 0.009792 0.055056 -1.731873
2008-05-27 08:29:52 51°28.288 2°59.494 19.4225 0.009792 0.055056 -1.731873
2008-05-27 08:30:52 51°28.48 2°59.634 19.4052 0.009792 0.05506 -1.731873
2008-05-27 08:31:52 51°28.669 2°59.775 19.4562 0.009792 0.055064 -1.731873
2008-05-27 08:32:52 51°28.852 2°59.932 19.4656 0.009792 0.055066 -1.731873
2008-05-27 08:33:52 51°29.035 3°0.093 19.4461 0.009792 0.055069 -1.731873
2008-05-27 08:34:53 51°29.217 3°0.25 19.4677 0.009792 0.05507 -1.731873
2008-05-27 08:35:53 51°29.403 3°0.401 19.4911 0.009792 0.055072 -1.731873
2008-05-27 08:36:52 51°29.591 3°0.537 19.5054 0.009792 0.055074 -1.697049
2008-05-27 08:37:53 51°29.786 3°0.669 19.5277 0.009792 0.055077 -1.731873
2008-05-27 08:38:52 51°29.975 3°0.798 19.5355 0.009792 0.055079 -1.731873
2008-05-27 08:39:52 51°30.171 3°0.929 19.556 0.009792 0.05508 -1.731873
2008-05-27 08:40:52 51°30.366 3°1.063 19.5891 0.009792 0.05508 -1.731873
2008-05-27 08:41:53 51°30.477 3°1.16 19.5899 0.009792 0.055081 -1.731873
2008-05-27 08:42:52 51°30.515 3°1.233 19.5914 0.009792 0.055082 -1.731873
2008-05-27 08:43:52 51°30.535 3°1.278 19.6094 0.009792 0.055082 -1.731873
2008-05-27 08:44:55 51°30.538 3°1.275 19.6068 0.009792 0.055082 -1.731873
2008-05-27 08:45:56 51°30.54 3°1.248 19.619 0.009792 0.055081 -1.731873
2008-05-27 08:46:55 51°30.545 3°1.239 19.6272 0.009792 0.055081 -1.731873
2008-05-27 08:47:54 51°30.549 3°1.252 19.6373 0.009792 0.055081 -1.731873
2008-05-27 08:48:53 51°30.552 3°1.267 19.66 0.009792 0.055081 -1.731873
2008-05-27 08:49:52 51°30.553 3°1.281 19.6667 0.009792 0.055082 -1.731873
2008-05-27 08:50:53 51°30.554 3°1.292 19.6754 0.009792 0.055083 -1.731873
2008-05-27 08:51:53 51°30.554 3°1.299 19.6914 0.009792 0.055084 -1.731873
2008-05-27 08:52:52 51°30.553 3°1.304 19.6862 0.009792 0.055085 -1.731873
2008-05-27 08:53:52 51°30.552 3°1.307 19.6962 0.009792 0.055086 -1.731873
2008-05-27 08:54:52 51°30.551 3°1.31 19.7082 0.009792 0.055086 -1.731873
2008-05-27 08:55:52 51°30.549 3°1.313 19.7201 0.009792 0.055086 -1.731873
2008-05-27 08:56:52 51°30.547 3°1.313 19.733 0.009792 0.055086 -1.731873
2008-05-27 08:57:52 51°30.546 3°1.313 19.7362 0.009792 0.055086 -1.731873
2008-05-27 08:58:52 51°30.544 3°1.313 19.7419 0.009792 0.055085 -1.731873
2008-05-27 08:59:52 51°30.542 3°1.312 19.7473 0.009792 0.055085 -1.731873
2008-05-27 09:00:53 51°30.539 3°1.309 19.7622 0.009792 0.055085 -1.731873
2008-05-27 09:01:52 51°30.538 3°1.306 19.7662 0.009792 0.055086 -1.731873
2008-05-27 09:02:53 51°30.538 3°1.304 19.7693 0.009792 0.055086 -1.731873
2008-05-27 09:03:52 51°30.538 3°1.3 19.7856 0.009792 0.055085 -1.731873
2008-05-27 09:04:53 51°30.537 3°1.298 19.7931 0.009792 0.055087 -1.731873
2008-05-27 09:05:52 51°30.538 3°1.296 19.8014 0.009792 0.055087 -1.731873
2008-05-27 09:06:53 51°30.538 3°1.295 19.8018 0.009792 0.055088 -1.731873
2008-05-27 09:07:52 51°30.537 3°1.293 19.8112 0.009792 0.055089 -1.731873
2008-05-27 09:08:53 51°30.539 3°1.291 19.8131 0.009792 0.055088 -1.731873
2008-05-27 09:09:53 51°30.54 3°1.293 19.8214 0.009792 0.055087 -1.731873
2008-05-27 09:10:53 51°30.54 3°1.294 19.8266 0.009792 0.055087 -1.731873
2008-05-27 09:11:53 51°30.54 3°1.297 19.8816 0.009792 0.055087 -1.731873
2008-05-27 09:12:53 51°30.54 3°1.298 19.8936 0.009792 0.055091 -1.731873
2008-05-27 09:13:53 51°30.54 3°1.299 19.9053 0.009792 0.055093 -1.731873
2008-05-27 09:14:53 51°30.54 3°1.298 19.9288 0.009792 0.055093 -1.731873
2008-05-27 09:15:52 51°30.54 3°1.297 19.9435 0.009792 0.055093 -1.731873
2008-05-27 09:16:53 51°30.542 3°1.297 19.9615 0.009792 0.055092 -1.731873
2008-05-27 09:17:52 51°30.541 3°1.297 19.9684 0.009792 0.055092 -1.731873
2008-05-27 09:18:52 51°30.541 3°1.297 19.9902 0.009792 0.055092 -1.731873
2008-05-27 09:19:53 51°30.539 3°1.299 20.0055 0.009792 0.055091 -1.731873
2008-05-27 09:20:53 51°30.536 3°1.3 19.9629 0.009792 0.05509 -1.731873
2008-05-27 09:21:52 51°30.534 3°1.3 19.7501 0.009792 0.055093 -1.731873
2008-05-27 09:22:53 51°30.531 3°1.301 19.7839 0.009792 0.055094 -1.731873
2008-05-27 09:23:52 51°30.53 3°1.302 19.818 0.009792 0.055094 -1.731873
2008-05-27 09:24:53 51°30.527 3°1.301 19.8365 0.009792 0.055094 -1.731873
2008-05-27 09:25:52 51°30.525 3°1.301 19.8762 0.009792 0.055094 -1.731873
2008-05-27 09:26:53 51°30.524 3°1.3 19.8726 0.009792 0.055092 -1.731873
2008-05-27 09:27:53 51°30.522 3°1.299 19.8983 0.009792 0.055091 -1.731873
2008-05-27 09:28:52 51°30.522 3°1.298 19.8821 0.009792 0.05509 -1.731873
2008-05-27 09:29:53 51°30.522 3°1.295 19.8959 0.009792 0.055087 -1.731873
2008-05-27 09:30:53 51°30.521 3°1.293 19.909 0.009792 0.055086 -1.731873
2008-05-27 09:31:53 51°30.521 3°1.291 19.9188 0.009792 0.055085 -1.731873
2008-05-27 09:32:52 51°30.519 3°1.289 19.9278 0.009792 0.055083 -1.731873
2008-05-27 09:33:53 51°30.518 3°1.287 19.9496 0.009792 0.055082 -1.731873
2008-05-27 09:34:52 51°30.517 3°1.286 19.9516 0.009792 0.055081 -1.731873
2008-05-27 09:35:53 51°30.516 3°1.284 19.9409 0.009792 0.055079 -1.731873
2008-05-27 09:36:53 51°30.515 3°1.282 19.9543 0.009792 0.055078 -1.731873
2008-05-27 09:37:52 51°30.513 3°1.281 19.9846 0.009792 0.055077 -1.731873
2008-05-27 09:38:53 51°30.514 3°1.281 19.9711 0.009792 0.055076 -1.731873
2008-05-27 09:39:52 51°30.527 3°1.28 19.9736 0.009792 0.055075 -1.731873
2008-05-27 09:40:53 51°30.538 3°1.284 19.998 0.009792 0.055073 -1.731873
2008-05-27 09:41:53 51°30.544 3°1.286 19.9885 0.009792 0.055071 -1.731873
2008-05-27 09:42:52 51°30.552 3°1.289 19.9945 0.009792 0.05507 -1.731873
2008-05-27 09:43:53 51°30.582 3°1.263 20.0172 0.009792 0.055068 -1.731873
2008-05-27 09:44:52 51°30.662 3°1.125 20.0185 0.009792 0.055068 -1.731873
2008-05-27 09:45:53 51°30.79 3°0.91 20.0128 0.009792 0.055068 -1.731873
2008-05-27 09:46:52 51°30.918 3°0.676 20.0187 0.009792 0.05507 -1.731873
2008-05-27 09:47:52 51°31.029 3°0.413 20.0511 0.009792 0.055073 -1.731873
2008-05-27 09:48:53 51°31.155 3°0.155 20.0265 0.009792 0.055075 -1.731873
2008-05-27 09:49:53 51°31.293 2°59.917 20.0275 0.009792 0.055075 -1.731873
2008-05-27 09:50:53 51°31.431 2°59.68 20.0222 0.009792 0.055075 -1.697049
2008-05-27 09:51:53 51°31.566 2°59.443 20.0405 0.009792 0.055076 -1.697049
2008-05-27 09:52:53 51°31.702 2°59.207 20.0471 0.009792 0.055075 -1.731873
2008-05-27 09:53:53 51°31.782 2°59.106 20.0433 0.009792 0.055076 -1.697049
2008-05-27 09:54:53 51°31.85 2°59.104 20.0303 0.009792 0.055075 -1.697049
2008-05-27 09:55:53 51°31.925 2°59.14 20.0282 0.009792 0.055075 -1.731873
2008-05-27 09:56:53 51°31.98 2°59.165 20.0592 0.009792 0.055073 -1.731873
2008-05-27 09:57:56 51°31.968 2°59.159 20.0469 0.009792 0.055071 -1.731873
2008-05-27 09:58:56 51°31.956 2°59.151 20.0482 0.009792 0.05507 -1.731873
2008-05-27 09:59:55 51°31.946 2°59.144 20.0511 0.009792 0.055069 -1.731873
2008-05-27 10:00:54 51°31.95 2°59.145 20.0684 0.009792 0.055068 -1.731873
2008-05-27 10:01:53 51°31.955 2°59.147 20.054 0.009792 0.055068 -1.731873
2008-05-27 10:02:53 51°31.956 2°59.147 20.0651 0.009792 0.055067 -1.731873
2008-05-27 10:03:53 51°31.953 2°59.144 20.0656 0.009792 0.055067 -1.731873
2008-05-27 10:04:53 51°31.949 2°59.142 20.0712 0.009792 0.055066 -1.731873
2008-05-27 10:05:53 51°31.95 2°59.143 20.0759 0.009792 0.055066 -1.731873
2008-05-27 10:06:53 51°31.953 2°59.145 20.0762 0.009792 0.055066 -1.731873
2008-05-27 10:07:53 51°31.954 2°59.146 20.0793 0.009792 0.055065 -1.731873
2008-05-27 10:08:53 51°31.953 2°59.147 20.0873 0.009792 0.055064 -1.731873
2008-05-27 10:09:52 51°31.95 2°59.146 20.0811 0.009792 0.055064 -1.731873
2008-05-27 10:10:53 51°31.948 2°59.145 20.0891 0.009792 0.055063 -1.731873
2008-05-27 10:11:52 51°31.951 2°59.146 20.0862 0.009792 0.055063 -1.697049
2008-05-27 10:12:52 51°31.952 2°59.147 20.0905 0.009792 0.055063 -1.731873
2008-05-27 10:13:53 51°31.95 2°59.146 20.0971 0.009792 0.055062 -1.731873
2008-05-27 10:14:53 51°31.949 2°59.144 20.0986 0.009792 0.055062 -1.731873
2008-05-27 10:15:53 51°31.949 2°59.145 20.1032 0.009792 0.055062 -1.731873
2008-05-27 10:16:53 51°31.95 2°59.145 20.1025 0.009792 0.055062 -1.731873
2008-05-27 10:17:53 51°31.95 2°59.147 20.1047 0.009792 0.055062 -1.731873
2008-05-27 10:18:53 51°31.949 2°59.149 20.107 0.009792 0.055062 -1.731873
2008-05-27 10:19:53 51°31.949 2°59.15 20.104 0.009792 0.055062 -1.731873
2008-05-27 10:20:53 51°31.949 2°59.15 20.1068 0.009792 0.055061 -1.731873
2008-05-27 10:21:53 51°31.948 2°59.151 20.1117 0.009792 0.055062 -1.731873
2008-05-27 10:22:53 51°31.948 2°59.148 20.1177 0.009792 0.055062 -1.697049
2008-05-27 10:23:53 51°31.95 2°59.147 20.1151 0.009792 0.055062 -1.731873
2008-05-27 10:24:53 51°31.951 2°59.146 20.1193 0.009792 0.055062 -1.731873
2008-05-27 10:25:53 51°31.95 2°59.145 20.1202 0.009792 0.055061 -1.731873
2008-05-27 10:26:53 51°31.95 2°59.145 20.1246 0.009792 0.055061 -1.731873
2008-05-27 10:27:52 51°31.949 2°59.142 20.1225 0.009792 0.055061 -1.731873
2008-05-27 10:28:53 51°31.95 2°59.144 20.124 0.009792 0.055062 -1.731873
2008-05-27 10:29:53 51°31.951 2°59.146 20.1264 0.009792 0.055062 -1.731873
2008-05-27 10:30:53 51°31.951 2°59.147 20.1317 0.009792 0.055061 -1.731873
2008-05-27 10:31:53 51°31.948 2°59.147 20.1349 0.009792 0.05506 -1.731873
2008-05-27 10:32:53 51°31.949 2°59.149 20.1323 0.009792 0.055061 -1.731873
2008-05-27 10:33:53 51°31.951 2°59.15 20.1344 0.009792 0.05506 -1.697049
2008-05-27 10:34:52 51°31.952 2°59.148 20.1376 0.009792 0.05506 -1.731873
2008-05-27 10:35:53 51°31.952 2°59.145 20.138 0.009792 0.05506 -1.731873
2008-05-27 10:36:53 51°31.95 2°59.143 20.1454 0.009792 0.05506 -1.731873
2008-05-27 10:37:53 51°31.949 2°59.142 20.1434 0.009792 0.05506 -1.731873
2008-05-27 10:38:53 51°31.952 2°59.142 20.1437 0.009792 0.05506 -1.731873
2008-05-27 10:39:52 51°31.952 2°59.141 20.1449 0.009792 0.05506 -1.731873
2008-05-27 10:40:53 51°31.95 2°59.142 20.1481 0.009792 0.05506 -1.731873
2008-05-27 10:41:52 51°31.949 2°59.142 20.1514 0.009792 0.05506 -1.731873
2008-05-27 10:42:53 51°31.951 2°59.143 20.1476 0.009792 0.05506 -1.731873
2008-05-27 10:43:53 51°31.951 2°59.144 20.1494 0.009792 0.05506 -1.731873
2008-05-27 10:44:53 51°31.95 2°59.143 20.1485 0.009792 0.055059 -1.731873
2008-05-27 10:45:53 51°31.949 2°59.143 20.1512 0.009792 0.055059 -1.731873
2008-05-27 10:46:53 51°31.949 2°59.144 20.1537 0.009792 0.05506 -1.731873
2008-05-27 10:47:53 51°31.953 2°59.147 20.1536 0.009792 0.05506 -1.731873
2008-05-27 10:48:53 51°31.963 2°59.151 20.1559 0.009792 0.055061 -1.731873
2008-05-27 10:49:53 51°31.976 2°59.157 20.1581 0.009792 0.055062 -1.731873
2008-05-27 10:50:52 51°31.987 2°59.155 20.1607 0.009792 0.055062 -1.731873
2008-05-27 10:51:53 51°31.998 2°59.159 20.1665 0.009792 0.055062 -1.731873
2008-05-27 10:52:53 51°32.062 2°59.179 20.1688 0.009792 0.055062 -1.731873
2008-05-27 10:53:53 51°32.204 2°59.225 20.1684 0.009792 0.055064 -1.731873
2008-05-27 10:54:53 51°32.384 2°59.282 20.1745 0.009792 0.055066 -1.731873
2008-05-27 10:55:52 51°32.568 2°59.265 20.1732 0.009792 0.05507 -1.731873
2008-05-27 10:56:53 51°32.736 2°59.1 20.177 0.009792 0.055075 -1.731873
2008-05-27 10:57:53 51°32.881 2°58.875 20.1791 0.009792 0.055083 -1.731873
2008-05-27 10:58:53 51°33.017 2°58.643 20.1805 0.009792 0.055089 -1.731873
2008-05-27 10:59:53 51°33.148 2°58.4 20.1876 0.009792 0.055092 -1.731873
2008-05-27 11:00:53 51°33.277 2°58.179 20.1898 0.009792 0.055094 -1.731873
2008-05-27 11:01:53 51°33.339 2°58.136 20.1833 0.009792 0.055095 -1.731873
2008-05-27 11:02:53 51°33.383 2°58.114 20.1682 0.009792 0.055093 -1.731873
2008-05-27 11:03:53 51°33.47 2°57.938 20.1815 0.009792 0.055092 -1.731873
2008-05-27 11:04:53 51°33.591 2°57.68 20.1795 0.009792 0.055094 -1.731873
2008-05-27 11:05:53 51°33.713 2°57.416 20.1818 0.009792 0.055095 -1.697049
2008-05-27 11:06:53 51°33.836 2°57.153 20.1887 0.009792 0.055094 -1.731873
2008-05-27 11:07:52 51°33.953 2°56.889 20.1872 0.009792 0.055094 -1.731873
2008-05-27 11:08:52 51°34.076 2°56.626 20.193 0.009792 0.055094 -1.731873
2008-05-27 11:09:53 51°34.201 2°56.354 20.1931 0.009792 0.055094 -1.731873
2008-05-27 11:10:53 51°34.32 2°56.082 20.1911 0.009792 0.055094 -1.731873
2008-05-27 11:11:53 51°34.368 2°55.754 20.1956 0.009792 0.055096 -1.731873
2008-05-27 11:12:53 51°34.389 2°55.417 20.2007 0.009792 0.055096 -1.731873
2008-05-27 11:13:52 51°34.401 2°55.182 20.198 0.009792 0.055095 -1.731873
2008-05-27 11:14:53 51°34.352 2°55.026 20.1967 0.009792 0.055094 -1.731873
2008-05-27 11:15:53 51°34.224 2°54.888 20.2093 0.009792 0.055092 -1.731873
2008-05-27 11:16:53 51°34.059 2°54.703 20.188 0.009792 0.055092 -1.731873
2008-05-27 11:17:53 51°33.881 2°54.505 20.1906 0.009792 0.055092 -1.731873
2008-05-27 11:18:53 51°33.695 2°54.312 20.1788 0.009792 0.055092 -1.731873
2008-05-27 11:19:53 51°33.504 2°54.141 20.1868 0.009792 0.055092 -1.731873
2008-05-27 11:20:53 51°33.292 2°54.062 20.1931 0.009792 0.055091 -1.731873
2008-05-27 11:21:53 51°33.076 2°54.024 20.1929 0.009792 0.05509 -1.731873
2008-05-27 11:22:52 51°32.861 2°53.974 20.1973 0.009792 0.05509 -1.731873
2008-05-27 11:23:53 51°32.64 2°53.925 20.2002 0.009792 0.05509 -1.731873
2008-05-27 11:24:52 51°32.424 2°53.864 20.2041 0.009792 0.05509 -1.731873
2008-05-27 11:25:53 51°32.199 2°53.806 20.2067 0.009792 0.055089 -1.731873
2008-05-27 11:26:53 51°31.983 2°53.756 20.205 0.009792 0.055088 -1.731873
2008-05-27 11:27:53 51°31.763 2°53.724 20.2115 0.009792 0.055087 -1.731873
2008-05-27 11:28:53 51°31.542 2°53.691 20.2071 0.009792 0.055086 -1.697049
2008-05-27 11:29:53 51°31.321 2°53.658 20.2108 0.009792 0.055085 -1.731873
2008-05-27 11:30:53 51°31.101 2°53.632 20.2168 0.009792 0.055085 -1.731873
2008-05-27 11:31:52 51°30.885 2°53.605 20.218 0.009792 0.055084 -1.731873
2008-05-27 11:32:53 51°30.66 2°53.582 20.2187 0.009792 0.055084 -1.731873
2008-05-27 11:33:53 51°30.439 2°53.554 20.2214 0.009792 0.055084 -1.697049
2008-05-27 11:34:53 51°30.22 2°53.535 20.2227 0.009792 0.055083 -1.731873
2008-05-27 11:35:53 51°30.001 2°53.516 20.2286 0.009792 0.055082 -1.731873
2008-05-27 11:36:53 51°29.781 2°53.505 20.2276 0.009792 0.055081 -1.731873
2008-05-27 11:37:53 51°29.561 2°53.493 20.2288 0.009792 0.05508 -1.731873
2008-05-27 11:38:52 51°29.346 2°53.495 20.2323 0.009792 0.055078 -1.731873
2008-05-27 11:39:53 51°29.122 2°53.502 20.233 0.009792 0.055079 -1.731873
2008-05-27 11:40:53 51°28.899 2°53.507 20.2348 0.009792 0.055077 -1.697049
2008-05-27 11:41:53 51°28.677 2°53.518 20.2397 0.009792 0.055077 -1.697049
2008-05-27 11:42:53 51°28.456 2°53.523 20.2424 0.009895 0.055602 -1.697049
2008-05-27 11:43:53 51°28.236 2°53.537 20.2364 0.009895 0.055602 -1.697049
2008-05-27 11:44:53 51°28.017 2°53.54 20.2437 0.009895 0.055601 -1.731873
2008-05-27 11:45:53 51°27.795 2°53.547 20.2456 0.009895 0.055601 -1.731873
2008-05-27 11:46:53 51°27.572 2°53.552 20.2348 0.009895 0.055601 -1.697049
2008-05-27 11:47:52 51°27.355 2°53.557 20.2529 0.009895 0.0556 -1.697049
2008-05-27 11:48:53 51°27.128 2°53.55 20.2563 0.009895 0.0556 -1.697049
2008-05-27 11:49:53 51°26.904 2°53.543 20.2597 0.009895 0.055599 -1.731873
2008-05-27 11:50:53 51°26.681 2°53.538 20.2637 0.009895 0.055598 -1.731873
2008-05-27 11:51:53 51°26.459 2°53.529 20.2677 0.009895 0.055598 -1.731873
2008-05-27 11:52:53 51°26.236 2°53.515 20.2685 0.009895 0.055597 -1.697049
2008-05-27 11:53:53 51°26.013 2°53.503 20.2726 0.009895 0.055597 -1.697049
2008-05-27 11:54:53 51°25.789 2°53.493 20.2767 0.009895 0.055596 -1.697049
2008-05-27 11:55:53 51°25.569 2°53.484 20.2821 0.009895 0.055595 -1.731873
2008-05-27 11:56:53 51°25.347 2°53.475 20.287 0.009895 0.055594 -1.697049
2008-05-27 11:57:53 51°25.126 2°53.464 20.2907 0.009895 0.055593 -1.697049
2008-05-27 11:58:53 51°24.903 2°53.449 20.2949 0.009895 0.055591 -1.697049
2008-05-27 11:59:53 51°24.679 2°53.417 20.3014 0.009895 0.055591 -1.697049
2008-05-27 12:00:53 51°24.455 2°53.376 20.2979 0.009895 0.055591 -1.697049
2008-05-27 12:01:52 51°24.236 2°53.323 20.3098 0.009895 0.05559 -1.697049
2008-05-27 12:02:53 51°24.008 2°53.273 20.31 0.009895 0.05559 -1.697049
2008-05-27 12:03:53 51°23.784 2°53.219 20.3123 0.009895 0.055589 -1.731873
2008-05-27 12:04:53 51°23.559 2°53.172 20.3166 0.009895 0.055589 -1.697049
2008-05-27 12:05:53 51°23.332 2°53.112 20.3211 0.009895 0.055587 -1.697049
2008-05-27 12:06:53 51°23.107 2°53.058 20.3264 0.009895 0.055587 -1.697049
2008-05-27 12:07:53 51°22.884 2°53.009 20.3349 0.009895 0.055585 -1.697049
2008-05-27 12:08:53 51°22.664 2°52.96 20.3315 0.009895 0.055584 -1.731873
2008-05-27 12:09:53 51°22.443 2°52.9 20.3254 0.009895 0.055582 -1.697049
2008-05-27 12:10:52 51°22.227 2°52.829 20.3392 0.009895 0.055582 -1.731873
2008-05-27 12:11:53 51°22.004 2°52.77 20.3497 0.009895 0.055581 -1.697049
2008-05-27 12:12:53 51°21.783 2°52.71 20.3434 0.009895 0.05558 -1.697049
2008-05-27 12:13:53 51°21.563 2°52.65 20.3505 0.009895 0.05558 -1.731873
2008-05-27 12:14:53 51°21.343 2°52.591 20.3533 0.009895 0.055579 -1.697049
2008-05-27 12:15:53 51°21.123 2°52.55 20.3685 0.009895 0.055578 -1.697049
2008-05-27 12:16:53 51°20.901 2°52.527 20.3732 0.009895 0.055577 -1.731873
2008-05-27 12:17:53 51°20.681 2°52.504 20.3567 0.009895 0.055575 -1.731873
2008-05-27 12:18:53 51°20.459 2°52.481 20.3682 0.009895 0.055575 -1.731873
2008-05-27 12:19:53 51°20.236 2°52.457 20.3789 0.009895 0.055574 -1.731873
2008-05-27 12:20:53 51°20.012 2°52.425 20.3954 0.009895 0.055575 -1.731873
2008-05-27 12:21:53 51°19.787 2°52.397 20.4019 0.009895 0.055574 -1.697049
2008-05-27 12:22:53 51°19.562 2°52.366 20.4126 0.009895 0.055574 -1.697049
2008-05-27 12:23:53 51°19.337 2°52.333 20.4279 0.009895 0.055573 -1.697049
2008-05-27 12:24:53 51°19.114 2°52.314 20.2102 0.009895 0.055571 -1.731873
2008-05-27 12:25:53 51°18.892 2°52.294 20.2031 0.009895 0.055571 -1.697049
2008-05-27 12:26:53 51°18.67 2°52.265 20.2393 0.009895 0.055571 -1.731873
2008-05-27 12:27:53 51°18.447 2°52.261 20.2801 0.009895 0.055571 -1.697049
2008-05-27 12:28:53 51°18.225 2°52.245 20.2518 0.009895 0.055571 -1.697049
2008-05-27 12:29:53 51°18.003 2°52.23 20.2768 0.009895 0.055571 -1.731873
2008-05-27 12:30:53 51°17.78 2°52.223 20.2817 0.009895 0.05557 -1.731873
2008-05-27 12:31:53 51°17.557 2°52.212 20.2903 0.009895 0.055569 -1.731873
2008-05-27 12:32:53 51°17.335 2°52.206 20.306 0.009895 0.055569 -1.697049
2008-05-27 12:33:53 51°17.113 2°52.187 20.3402 0.009895 0.055568 -1.731873
2008-05-27 12:34:53 51°16.892 2°52.181 20.2992 0.009895 0.055568 -1.731873
2008-05-27 12:35:53 51°16.697 2°52.306 20.3485 0.009895 0.055567 -1.731873
2008-05-27 12:36:53 51°16.515 2°52.478 20.3523 0.009895 0.055566 -1.731873
2008-05-27 12:37:53 51°16.332 2°52.638 20.3648 0.009895 0.055565 -1.731873
2008-05-27 12:38:53 51°16.148 2°52.8 20.4039 0.009895 0.055564 -1.731873
2008-05-27 12:39:53 51°15.963 2°52.954 20.3829 0.009895 0.055564 -1.731873
2008-05-27 12:40:53 51°15.778 2°53.104 20.388 0.009895 0.055565 -1.731873
2008-05-27 12:41:53 51°15.599 2°53.27 20.3871 0.009895 0.055564 -1.697049
2008-05-27 12:42:53 51°15.424 2°53.441 20.4005 0.009895 0.055564 -1.697049
2008-05-27 12:43:53 51°15.247 2°53.61 20.4218 0.009895 0.055564 -1.731873
2008-05-27 12:44:53 51°15.069 2°53.779 20.3934 0.009895 0.055564 -1.697049
2008-05-27 12:45:53 51°14.925 2°53.996 20.4188 0.009895 0.055564 -1.731873
2008-05-27 12:46:53 51°14.805 2°54.212 20.4336 0.009895 0.055564 -1.731873
2008-05-27 12:47:53 51°14.691 2°54.417 20.4474 0.009895 0.055562 -1.731873
2008-05-27 12:48:53 51°14.579 2°54.624 20.4489 0.009895 0.055563 -1.731873
2008-05-27 12:49:53 51°14.469 2°54.836 20.4486 0.009895 0.055564 -1.731873
2008-05-27 12:50:53 51°14.37 2°55.061 20.4609 0.009895 0.055564 -1.731873
2008-05-27 12:51:57 51°14.28 2°55.258 20.4651 0.009895 0.055564 -1.731873
2008-05-27 12:52:56 51°14.209 2°55.372 20.4726 0.009895 0.055564 -1.731873
2008-05-27 12:53:56 51°14.126 2°55.446 20.4818 0.009895 0.055564 -1.731873
2008-05-27 12:54:56 51°14.034 2°55.504 20.4778 0.009895 0.055564 -1.731873